This is the latest recevied weather packets stored in our database for station/object DB0TGO-14. If no packets are shown the sender has not sent any weather packets the latest 1 day(s).
| Time | Temp. | Humidity | Pressure | Rain* | Wind** | Luminosity | Snow |
|---|---|---|---|---|---|---|---|
| 1778015665 | 12.78° C | 92% | 1008.7 hPa | 0 mm | 1.34 m/s, 45° | - | - |
| 1778015569 | 12.78° C | 92% | 1008.8 hPa | 0 mm | 0.89 m/s, 22° | - | - |
| 1778015472 | 12.78° C | 92% | 1008.7 hPa | 0 mm | 0.89 m/s, 45° | - | - |
| 1778015359 | 12.78° C | 92% | 1008.7 hPa | 0 mm | 0.89 m/s, 45° | - | - |
| 1778015321 | 12.78° C | 92% | 1008.7 hPa | 0 mm | 0.89 m/s, 45° | - | - |
| 1778015255 | 12.78° C | 92% | 1008.7 hPa | 0 mm | 0.89 m/s, 45° | - | - |
| 1778015145 | 12.78° C | 92% | 1008.8 hPa | 0 mm | 0.89 m/s, 112° | - | - |
| 1778015038 | 12.78° C | 92% | 1008.8 hPa | 0 mm | 1.34 m/s, 22° | - | - |
| 1778014935 | 12.78° C | 92% | 1008.7 hPa | 0 mm | 1.34 m/s, 22° | - | - |
| 1778014825 | 13.33° C | 92% | 1008.7 hPa | 0 mm | 1.79 m/s, 22° | - | - |
| 1778014719 | 13.33° C | 92% | 1008.7 hPa | 0 mm | 1.79 m/s, 22° | - | - |
| 1778014612 | 13.33° C | 92% | 1008.6 hPa | 0 mm | 2.24 m/s, 22° | - | - |
| 1778014505 | 13.33° C | 92% | 1008.7 hPa | 0 mm | 1.79 m/s, 270° | - | - |
| 1778014385 | 13.33° C | 92% | 1008.7 hPa | 0 mm | 1.79 m/s, 22° | - | - |
| 1778014302 | 13.33° C | 92% | 1008.8 hPa | 0 mm | 1.79 m/s, 22° | - | - |
| 1778014290 | 13.33° C | 92% | 1008.8 hPa | 0 mm | 1.79 m/s, 22° | - | - |
| 1778014178 | 13.33° C | 92% | 1008.8 hPa | 0 mm | 1.79 m/s, 45° | - | - |
| 1778014058 | 13.33° C | 92% | 1008.8 hPa | 0 mm | 1.34 m/s, 22° | - | - |
| 1778013945 | 13.33° C | 92% | 1008.8 hPa | 0 mm | 1.34 m/s, 45° | - | - |
| 1778013825 | 13.33° C | 92% | 1008.8 hPa | 0 mm | 1.34 m/s, 22° | - | - |
| 1778013708 | 13.33° C | 92% | 1008.8 hPa | 0 mm | 1.34 m/s, 45° | - | - |
| 1778013590 | 13.33° C | 91% | 1008.7 hPa | 0 mm | 0.89 m/s, 68° | - | - |
| 1778013468 | 13.33° C | 92% | 1008.8 hPa | 0 mm | 1.34 m/s, 45° | - | - |
| 1778013360 | 13.33° C | 91% | 1008.7 hPa | 0 mm | 1.34 m/s, 45° | - | - |
| 1778013347 | 13.33° C | 91% | 1008.7 hPa | 0 mm | 1.34 m/s, 0° | - | - |
* Rain latest hour (hover to see other rain measurements)
** Current wind speed in m/s (hover to see current wind gust speed)